METEOR 2-11 DEB, 40707

Orbit data source: Space-Track

METEOR 2-11 DEB, 40707 is space debris in LEO originally from a launch on Thu, 05 Jul 1984 UTC launched from the Plesetsk Missile And Space Complex (PKMTR). Debris objects in space refer to the collection of defunct objects orbiting the Earth. Examples of debris include non-operational satellites, rocket bodies, and fragments generated from explosions, collisions, or faulty payload assembly.

Loading next visibility...
Identifier
40707, 1984-072J
Orbit
LEO
Country
Flag of CISCIS
Related business
Manufacturer
Unknown
Mission
Spacecraft
Bus & Motor
Unknown
Mass
Unknown
Launch date (UTC)
1984-07-05 (42 years ago)
Launch vehicle
Unknown
Launch site
Plesetsk Missile And Space Complex (PKMTR)
Object type
Payload
Rocket body
Debris
Shape & HBR
Unknown shape, 0.1 m
Radar Cross Section
Small (<0.1 m²)

Expand to show TLE details & history
Last TLE update: 6 days ago

TLE from 6 days ago
0 METEOR 2-11 DEB
1 40707U 84072J   26056.80380964  .00001541  00000-0  10859-2 0  9992
2 40707  82.5197  97.0025 0008596  22.5299 337.6245 13.97443377 88624
Epoch: 2026-02-25T19:17Z
TLE epoch observation values (Epoch: 2026-02-25T19:17:29.152Z)
Latitude
0.00002°
Longitude
11.9673°
Altitude
899.794 km
Speed
7.405 km/s
True Right ascension
06h 28m 00s
True Declination
0° 00' 00"
Sunlit
Object was in daylight at epoch
Visualization orbit readout
Latitude
Unknown
Longitude
Unknown
Altitude
Unknown
Speed
Unknown
Apparent Right ascension
Unknown
Apparent Declination
Unknown
Sunlit
N/A
Visualization observer readout
Local Sidereal Time
17:55:29
Azimuth
Unknown
Elevation
Unknown
Doppler factor
Unknown
Orbital elements
Apogee altitude
906.052 km
Perigee altitude
893.54 km
Semi-major axis
7,277.933 km
Eccentricity
0.00086
Inclination
82.5197°
RAAN
97.0025°
Arg. of periapsis
22.5299°
True anomaly
337.58697°
Mean anomaly
337.6245°
Eccentric anomaly
337.60574°
Mean motion
3.49568 °/min
Orbital period
102.98 mins
BSTAR
0.0010859
Loading maneuver chart data...
Computing Atmospheric mass density...
Loading historical data...
Loading historical data...
Loading historical data...
Loading historical data...
Loading historical data...
Loading historical data...
Loading historical data...

Documentation

Showing up to 5 results
|